Index of /remi/enterprise/7.4/

NameLast ModifiedSizeType
../ -  Directory
debug-php55/2014-Apr-24 15:01:44-  Directory
debug-php56/2014-Apr-24 15:01:47-  Directory
debug-php70/2015-Jul-22 16:33:33-  Directory
debug-php71/2016-Jun-26 11:31:24-  Directory
debug-php72/2021-Mar-02 09:56:55-  Directory
debug-php73/2018-Jun-14 10:35:54-  Directory
debug-php74/2019-Aug-22 10:07:02-  Directory
debug-php80/2020-Aug-17 12:15:20-  Directory
debug-php81/2021-Sep-02 08:41:42-  Directory
debug-php82/2022-Sep-02 09:34:28-  Directory
debug-php83/2023-Aug-30 11:17:51-  Directory
debug-remi/2014-Apr-24 15:01:51-  Directory
debug-test/2014-Apr-24 15:01:55-  Directory
debug-test70/2015-Dec-09 09:33:17-  Directory
debug-test71/2016-Jun-26 11:31:25-  Directory
debug-test72/2021-Mar-02 09:56:55-  Directory
debug-test73/2018-Jun-14 10:35:55-  Directory
debug-test74/2019-Aug-22 10:07:02-  Directory
debug-test80/2020-Aug-17 12:15:20-  Directory
debug-test81/2021-Sep-02 08:41:59-  Directory
debug-test82/2022-Sep-02 09:35:01-  Directory
debug-test83/2023-Aug-30 11:17:51-  Directory
glpi91/2024-Apr-03 07:28:19-  Directory
glpi92/2024-Apr-03 07:28:19-  Directory
glpi93/2024-Apr-03 07:28:19-  Directory
glpi94/2024-Apr-03 07:28:19-  Directory
modular/2024-Apr-03 07:28:19-  Directory
modular-test/2024-Apr-03 07:28:19-  Directory
php54/2024-Apr-03 07:28:19-  Directory
php55/2024-Apr-03 07:28:19-  Directory
php56/2024-Apr-03 07:28:19-  Directory
php70/2024-Apr-03 07:28:19-  Directory
php71/2024-Apr-03 07:28:19-  Directory
php72/2024-Apr-03 07:28:19-  Directory
php73/2024-Apr-03 07:28:19-  Directory
php74/2024-Apr-03 07:28:19-  Directory
php80/2024-Apr-03 07:28:19-  Directory
php81/2024-Apr-03 07:28:19-  Directory
php82/2024-Apr-03 07:28:19-  Directory
php83/2024-Apr-03 07:28:19-  Directory
remi/2024-Apr-03 07:28:19-  Directory
safe/2024-Apr-03 07:28:19-  Directory
test/2024-Apr-03 07:28:19-  Directory
test70/2024-Apr-03 07:28:19-  Directory
test71/2024-Apr-03 07:28:19-  Directory
test72/2024-Apr-03 07:28:19-  Directory
test73/2024-Apr-03 07:28:19-  Directory
test74/2024-Apr-03 07:28:19-  Directory
test80/2024-Apr-03 07:28:19-  Directory
test81/2024-Apr-03 07:28:19-  Directory
test82/2024-Apr-03 07:28:19-  Directory
test83/2024-Apr-03 07:28:19-  Directory
RPM-GPG-KEY-remi2023-May-05 14:56:521.3Kapplication/octet-stream
mirror provided by SpeedPartner GmbH